User: anonymous   Login
Location: Newark
(17.1333°N, 61.8333°W)
Time: 04:47:43
(UTC+00:00)
Language:

Envisat - Orbit

View from above orbital plane
View from above orbital plane
View from above satellite
View from above satellite

Ground track
Ground track

The orbit data is extracted from the following two-line orbital elements,

1 27386U 02009A   19233.69606733 -.00000023  00000-0  58719-5 0  9996
2 27386  98.1475 251.4428 0001415  89.2388  24.8047 14.37955099915391
Epoch (UTC): 21 August 2019 16:42:20
Eccentricity: 0.0001415
inclination: 98.1475°
perigee height: 764 km
apogee height: 766 km
right ascension of ascending node: 251.4428°
argument of perigee: 89.2388°
revolutions per day: 14.37955099
mean anomaly at epoch: 24.8047°
orbit number at epoch: 91539

The dashed part of the orbit path shows where the satellite is in the earth's shadow,  

DLR